Location: ASU Dark Sky Observatory
(36.2504°N, 81.4125°W)
Time: 05:51:02
(UTC-04:00)

ETS-7 - Visible Passes

Search period start: 31 October 2014 00:00
Search period end: 09 November 2014 23:00
Orbit: 403 x 407 km, 35.0° (Epoch: 29 October)

Date Brightness Start Highest point End Pass type
(mag) Time Alt. Az. Time Alt. Az. Time Alt. Az.
02 Nov 4.8 06:00:47 10° SSW 06:03:02 17° SSE 06:05:17 10° ESE visible
03 Nov 5.0 05:07:55 10° S 05:09:18 12° SSE 05:10:42 10° SE visible
04 Nov 3.7 05:49:45 10° SW 05:52:42 31° SSE 05:55:41 10° E visible
05 Nov 4.1 04:58:56 24° SSE 04:58:56 24° SSE 05:01:30 10° ESE visible
06 Nov 2.7 05:40:33 25° SW 05:42:12 51° SSE 05:45:25 10° E visible
07 Nov 4.3 04:49:26 27° ESE 04:49:26 27° ESE 04:51:14 10° E visible
07 Nov 2.3 06:22:25 10° W 06:25:41 71° S 06:28:58 10° E visible
08 Nov 2.2 05:30:46 48° WSW 05:31:30 68° S 05:34:46 10° E visible
09 Nov 4.9 04:39:25 19° E 04:39:25 19° E 04:40:30 10° E visible
09 Nov 2.4 06:11:59 13° W 06:14:52 64° S 06:18:08 10° ESE visible
